Modesto, CA

10:25 AM PST on November 22, 2019 (GMT -0800)
Modesto City-County-Sham

Weather History for KMOD - July, 2019

Change the Weather History Date:

Wednesday, July 24, 2019

  Actual Average Record
Temperature  
Mean Temperature 85 °F -  
Max Temperature 100 °F 96 °F 113 °F (2006)
Min Temperature 70 °F 63 °F 52 °F (1944)
Degree Days  
Heating Degree Days 0 0  
Month to date heating degree days 0  
Since 1 June heating degree days 3  
Since 1 July heating degree days 0  
Cooling Degree Days 20 14  
Month to date cooling degree days 336  
Year to date cooling degree days 834  
Since 1 June cooling degree days 635  
Growing Degree Days 35 (Base 50)    
Moisture  
Dew Point 44 °F    
Average Humidity 24    
Maximum Humidity 42    
Minimum Humidity 13    
Precipitation  
Precipitation 0.00 in 0.00 in 0.01 in (2007)
Month to date precipitation 0.00  
Year to date precipitation 8.75  
Snow  
Snow 0.00 in - - ()
Month to date snowfall  
Since 1 June snowfall  
Since 1 July snowfall  
Snow Depth -    
Sea Level Pressure  
Sea Level Pressure 29.91 in    
Wind  
Wind Speed 7 mph (NW)    
Max Wind Speed 15 mph    
Max Gust Speed 21 mph    
Visibility 10 miles    
Events      
T = Trace of Precipitation, MM = Missing Value Source: NWS Daily Summary

Daily Weather History Graph

Daily Weather History Graph

Search for Another Location

Airport or City:

Astronomy

Jul. 24, 2019 Rise Set
Actual Time 6:01 AM PDT 8:19 PM PDT
Civil Twilight 5:31 AM PDT 8:48 PM PDT
Nautical Twilight 4:54 AM PDT 9:25 PM PDT
Astronomical Twilight 4:14 AM PDT 10:05 PM PDT
Moon 12:16 AM PDT (7/24) 1:09 PM PDT (7/24)
Length of Visible Light 15h 17m
Length of Day
14h 18m
Waning Gibbous, 53% of the Moon is Illuminated
Jul 24
Waning Gibbous
Jul 24
Last Quarter
Jul 31
New
Aug 7
First Quarter
Aug 15
Full

Hourly Weather History & Observations

Time (PDT) Temp. Heat Index Dew Point Humidity Pressure Visibility Wind Dir Wind Speed Gust Speed Precip Events Conditions
12:53 AM 77.0 °F - 39.0 °F 25% 29.94 in 10.0 mi North 6.9 mph - N/A   Clear
1:53 AM 77.0 °F - 39.0 °F 25% 29.93 in 10.0 mi North 6.9 mph - N/A   Clear
2:53 AM 75.9 °F - 39.9 °F 27% 29.93 in 10.0 mi North 5.8 mph - N/A   Clear
3:53 AM 73.9 °F - 37.9 °F 27% 29.93 in 10.0 mi NNW 4.6 mph - N/A   Clear
4:53 AM 73.9 °F - 39.9 °F 29% 29.94 in 10.0 mi WNW 4.6 mph - N/A   Clear
5:53 AM 70.0 °F - 46.0 °F 42% 29.95 in 10.0 mi WSW 4.6 mph - N/A   Clear
6:53 AM 72.0 °F - 45.0 °F 38% 29.96 in 10.0 mi WNW 4.6 mph - N/A   Clear
7:53 AM 75.9 °F - 44.1 °F 32% 29.96 in 10.0 mi WNW 4.6 mph - N/A   Clear
8:53 AM 82.0 °F - 43.0 °F 25% 29.97 in 10.0 mi NNW 6.9 mph - N/A   Clear
9:53 AM 86.0 °F - 46.0 °F 25% 29.96 in 10.0 mi WNW 8.1 mph - N/A   Clear
10:53 AM 88.0 °F - 44.1 °F 22% 29.95 in 10.0 mi WNW 9.2 mph - N/A   Clear
11:53 AM 91.0 °F - 48.9 °F 23% 29.94 in 10.0 mi WNW 6.9 mph - N/A   Clear
12:53 PM 93.9 °F - 50.0 °F 22% 29.94 in 10.0 mi WNW 6.9 mph - N/A   Clear
1:53 PM 97.0 °F - 46.9 °F 18% 29.92 in 10.0 mi NW 12.7 mph 17.3 mph N/A   Clear
2:53 PM 100.0 °F - 41.0 °F 13% 29.90 in 10.0 mi NNW 12.7 mph - N/A   Clear
3:53 PM 100.0 °F - 46.0 °F 16% 29.88 in 10.0 mi NNW 15.0 mph - N/A   Clear
4:53 PM 100.9 °F - 43.0 °F 14% 29.86 in 10.0 mi NW 12.7 mph - N/A   Clear
5:53 PM 100.0 °F - 48.9 °F 18% 29.84 in 10.0 mi NNW 11.5 mph 20.7 mph N/A   Clear
6:53 PM 99.0 °F - 48.9 °F 18% 29.84 in 10.0 mi North 10.4 mph - N/A   Clear
7:53 PM 96.1 °F - 50.0 °F 21% 29.84 in 10.0 mi North 9.2 mph - N/A   Clear
8:53 PM 91.0 °F 88.7 °F 54.0 °F 28% 29.86 in 10.0 mi NNW 6.9 mph - N/A   Clear
9:53 PM 88.0 °F - 50.0 °F 27% 29.87 in 10.0 mi NW 5.8 mph - N/A   Clear
10:53 PM 87.1 °F - 39.9 °F 19% 29.86 in 10.0 mi NW 10.4 mph - N/A   Clear
11:53 PM 84.9 °F - 32.0 °F 15% 29.86 in 10.0 mi NNW 5.8 mph - N/A   Clear